Regional Weather Roundup
Issued by NWS Lake Charles, LA

Home | Current Version | Previous Version | Text Only | Print | Product List | Glossary On
Versions: 1 2 3 4 5 6 7 8 9 10 11 12 13 14 15 16 17 18 19 20 21 22 23 24 25 26 27 28 29
000
ASUS44 KLCH 301510
RWRLCH
RWRLCH
REGIONAL WEATHER ROUNDUP
NATIONAL WEATHER SERVICE LAKE CHARLES LA
1000 AM CDT THU OCT 30 2014

Note: "fair" indicates few or no clouds below 12,000 feet with no
significant weather and/or obstructions to visibility.


ACROSS SOUTHEAST TEXAS

CITY           SKY/WX    TMP DP  RH WIND       PRES   REMARKS
BEAUMONT       SUNNY     66  48  52 NE10      30.14R
BEAUMONT CITY    N/A     64  48  55 E7        30.15S
ORANGE         SUNNY     63  48  57 NE8       30.16S
JASPER         SUNNY     59  49  69 E5        30.19R
$$

ACROSS CENTRAL LOUISIANA

CITY           SKY/WX    TMP DP  RH WIND       PRES   REMARKS
LEESVILLE      SUNNY     62  47  57 E7        30.17R
FULLERTON      NOT AVBL
ALEXANDRIA INT SUNNY     60  49  66 E6        30.16R
ESLER FIELD    SUNNY     61  49  64 NE5       30.17S
DERIDDER         N/A     61  47  59 E5        30.18S
OAKDALE        SUNNY     61  49  66 NE3       30.17S
OPELOUSAS        N/A     62  48  59 E3        30.16R
$$

ACROSS SOUTHWEST AND SOUTH CENTRAL LOUISIANA

CITY           SKY/WX    TMP DP  RH WIND       PRES   REMARKS
SULPHUR        SUNNY     67  45  44 E7        30.16R
LAKE CHARLES   SUNNY     64  47  53 E9        30.15R
CHENNAULT INT  SUNNY     63  48  59 NE6       30.15R
CAMERON PHI    SUNNY     66  48  52 E12       30.16S
DEQUINCY         N/A     61  49  64 E3        30.16S
JENNINGS         N/A     63  47  57 NE9       30.15R
LAFAYETTE      SUNNY     63  48  58 NE7       30.15R
NEW IBERIA     SUNNY     66  47  50 NE9       30.15R
ABBEVILLE        N/A     64  46  51 NE9       30.14S
PATTERSON      SUNNY     66  50  55 E15G21    30.14S
SALT POINT       N/A     67  53  61 VRB6      30.11S
$$

SELECTED SITES ACROSS THE REGION

CITY           SKY/WX    TMP DP  RH WIND       PRES   REMARKS
HOUSTON BUSH   MOSUNNY   66  49  54 E10       30.15R
HOUSTON HOBBY  SUNNY     68  52  56 NE8       30.14R
GALVESTON      PTSUNNY   70  61  73 NE8       30.13R
COLLEGE STAT   SUNNY     64  48  56 E9        30.17R
CONROE         SUNNY     62  48  60 CALM      30.17R
HUNTSVILLE     SUNNY     62  50  64 E3        30.17R
LUFKIN         SUNNY     63  51  65 E7        30.18R
SHREVEPORT     SUNNY     61  50  67 SE7       30.18R
MONROE         SUNNY     57  50  77 CALM      30.20R
NATCHEZ MS     SUNNY     61  45  55 E7        30.18R
BATON ROUGE    SUNNY     63  45  51 NE8       30.15R
N.O. INTL ARPT SUNNY     67  47  48 NE15      30.12S
SLIDELL        SUNNY     65  45  48 NE6       30.13R
$$

MARINE REPORTS

STATION/POSITION TIME  TEMP    WIND        PRES    VSBY  WAVE
                       AIR SEA DIR/SP/G                  HT/PER
                 (UTC) (F)     (DEG/KT/KT) (MB)    (MI)  (FT/S)
BUOY 30 S HIGH I 1500   71 77   70/ 12/ 14 1019.4R         3/ 5
SEA RIM ST PARK  1500   65      70/ 12/ 14 1021.0R
PORT ARTHUR      1500      74   60/  5/ 10 1020.6R
SABINE PASS N    1500   65 75   80/ 13/ 16 1020.4R
TEXAS POINT      1500   65 73   70/ 13/ 16 1020.6R
CALCASIEU PASS   1500   65 74   90/  8/ 15   N/A
LK CHARLES BEACH 1500   63 76              1021.0R
MARSH ISLAND     NOT AVBL
FRESH WATER LOCK 1500   66 78   50/ 10/ 14 1019.8R
AMERADA PASS     1500   66 67   60/  5/ 11 1019.3F
$$



USA.gov is the U.S. government's official web portal to all federal, state and local government web resources and services.